Погода в Трудармейском

Россия / Кемеровская область (Кузбасс)     54°07′35″N   86°24′39″E
темп.,
°C
ветер,
м/с
пор.,
м/с
влажн.,
%
обл.,
%
осадки,
мм/ч
давл.,
гПа
погр.,
м
9 декабря, чт
чт901:00−25ююз22995 0.0 104111
04:00−23ююз229796 0.0 104242
07:00−24ю249666 0.0 104554
10:00−22ю3795100 0.0 1047161
13:00−19ююз3689100 0.1 1047292
16:00−18ююз4790100 0.0 1048360
19:00−19ююз41091100 0.0 1049368
22:00−18ююз4990100 0.0 1049378
10 декабря, пт
пт1001:00−19ю4792100 0.0 1049207
04:00−21ю379596 0.0 1049133
07:00−19ю51093100 0.0 1048296
10:00−17ю51289100 0.0 1048366
13:00−14ююз51291100 0.3 1046485
16:00−13ююз51093100 0.5 1045483
19:00−13ююз41091100 0.8 1046370
22:00−13ю5992100 0.1 1046301
11 декабря, сб
сб1101:00−12ю4993100 0.3 1045286
04:00−11ююв4893100 0.3 1044268
07:00−12ююв4990100 0.3 1042194
10:00−12ююв4884100 0.0 1040139
13:00−9ююв4983100 0.0 1036214
16:00−8ююв4984100 0.0 1034185
19:00−10ююв4981100 0.0 1032135
22:00−10ююв3779100 0.0 1030131
12 декабря, вс
вс1201:00−8ю4877100 0.0 1027170
04:00−7ююз51167100 0.0 1025282
07:00−9юз3677100 0.0 1024122
10:00−10ююз3685100 0.0 1023148
13:00−9юз3787100 0.0 1022405
16:00−9зюз2492100 0.1 1022345
19:00−11зсз1397100 0.2 102476
22:00−14сз3697100 0.1 1026203
13 декабря, пн
пн1301:00−19зсз249999 0.2 102984
04:00−22з1110090 0.1 10319
07:00−23ю1110099 0.1 10329
10:00−21ююз1298100 0.0 103257
13:00−17юз2491100 0.1 1031341
16:00−17юз3495100 0.4 1031400
19:00−18ююз3596100 0.7 1031319
22:00−18ююз2597100 0.3 1031292